Location: ??
(34.7707°N, 135.6540°E)
Time: 07:53:36
(UTC+00:00)

USA 238 - Pass Details

Date: 09 April 2020
Orbit: 1014 x 1198 km, 63.4° (Epoch: 25 May)

Event Time Altitude Azimuth Distance (km) Brightness Sun altitude
Exits shadow 17:42:09 39° 329° (NNW) 1,514 4.4 -32.5°
Drops below altitude 10° 17:47:35 10° 18° (NNE) 2,902 6.6 -31.6°
Sets 17:50:28 0° 26° (NNE) 3,888 7.5 -31.1°
